Time,TemperatureF,DewpointF,PressureIn,WindDirection,WindDirectionDegrees,WindSpeedMPH,WindSpeedGustMPH,Humidity,HourlyPrecipIn,Conditions,Clouds,dailyrainin,SoftwareType,DateUTC
2013-02-18 00:10:00,13.3,0.9,29.97,WNW,303,8.0,29.0,57,0.00,SCT,,0.00,WeatherDisplay:10.37,2013-02-18 05:10:00,
2013-02-18 00:30:00,13.2,0.8,29.98,WNW,299,20.0,30.0,57,0.00,SCT,,0.00,WeatherDisplay:10.37,2013-02-18 05:30:00,
2013-02-18 00:40:00,13.1,1.0,29.99,WNW,303,16.0,23.0,58,0.00,SCT,,0.00,WeatherDisplay:10.37,2013-02-18 05:40:00,
2013-02-18 00:50:00,12.9,0.9,29.99,WNW,288,14.0,25.0,58,0.00,SCT,,0.00,WeatherDisplay:10.37,2013-02-18 05:50:00,
2013-02-18 01:00:00,12.9,0.5,29.99,NW,304,23.0,29.0,57,0.00,SCT,,0.00,WeatherDisplay:10.37,2013-02-18 06:00:00,
2013-02-18 01:10:00,12.7,0.3,30.00,NW,320,23.0,32.0,57,0.00,SCT,,0.00,WeatherDisplay:10.37,2013-02-18 06:10:00,
2013-02-18 01:20:00,12.6,0.2,30.01,NW,309,16.0,29.0,57,0.00,SCT,,0.00,WeatherDisplay:10.37,2013-02-18 06:20:00,
2013-02-18 01:30:00,12.5,0.1,30.01,NW,315,24.0,33.0,57,0.00,SCT,,0.00,WeatherDisplay:10.37,2013-02-18 06:30:00,
2013-02-18 01:40:00,12.3,0.4,30.02,NW,317,24.0,29.0,58,0.00,SCT,,0.00,WeatherDisplay:10.37,2013-02-18 06:40:00,
2013-02-18 01:50:00,12.2,0.3,30.01,WNW,300,18.0,30.0,58,0.00,SCT,,0.00,WeatherDisplay:10.37,2013-02-18 06:50:00,
2013-02-18 02:00:00,12.2,0.2,30.02,NW,313,14.0,33.0,58,0.00,SCT,,0.00,WeatherDisplay:10.37,2013-02-18 07:00:00,
2013-02-18 02:10:00,12.2,0.6,30.02,WNW,299,28.0,36.0,59,0.00,FEW,,0.00,WeatherDisplay:10.37,2013-02-18 07:10:00,
2013-02-18 02:20:00,12.1,0.5,30.02,NW,304,17.0,27.0,59,0.00,FEW,,0.00,WeatherDisplay:10.37,2013-02-18 07:20:00,
2013-02-18 02:30:00,11.9,0.3,30.02,NW,309,17.0,33.0,59,0.00,FEW,,0.00,WeatherDisplay:10.37,2013-02-18 07:30:00,
2013-02-18 02:40:00,11.7,0.1,30.03,NW,305,25.0,35.0,59,0.00,FEW,,0.00,WeatherDisplay:10.37,2013-02-18 07:40:00,
2013-02-18 02:50:00,11.6,0.0,30.04,WNW,301,18.0,36.0,59,0.00,FEW,,0.00,WeatherDisplay:10.37,2013-02-18 07:50:00,
2013-02-18 03:00:00,11.4,0.2,30.04,WNW,296,26.0,38.0,60,0.00,FEW,,0.00,WeatherDisplay:10.37,2013-02-18 08:00:00,
2013-02-18 03:10:00,11.2,0.0,30.04,WNW,291,14.0,35.0,60,0.00,FEW,,0.00,WeatherDisplay:10.37,2013-02-18 08:10:00,
2013-02-18 03:20:00,11.0,0.2,30.05,WNW,302,17.0,35.0,61,0.00,FEW,,0.00,WeatherDisplay:10.37,2013-02-18 08:20:00,
2013-02-18 03:30:00,10.9,0.1,30.05,WNW,301,26.0,32.0,61,0.00,FEW,,0.00,WeatherDisplay:10.37,2013-02-18 08:30:00,
2013-02-18 03:40:00,10.9,0.1,30.06,WNW,302,22.0,35.0,61,0.00,FEW,,0.00,WeatherDisplay:10.37,2013-02-18 08:40:00,
2013-02-18 03:50:00,10.7,-0.4,30.06,WNW,299,14.0,32.0,60,0.00,FEW,,0.00,WeatherDisplay:10.37,2013-02-18 08:50:00,
2013-02-18 04:00:00,10.5,-0.3,30.07,WNW,300,17.0,29.0,61,0.00,FEW,,0.00,WeatherDisplay:10.37,2013-02-18 09:00:00,
2013-02-18 04:10:00,10.4,-0.5,30.07,WNW,296,26.0,44.0,61,0.00,FEW,,0.00,WeatherDisplay:10.37,2013-02-18 09:10:00,
2013-02-18 04:20:00,10.2,-0.6,30.08,WNW,302,8.0,32.0,61,0.00,FEW,,0.00,WeatherDisplay:10.37,2013-02-18 09:20:00,
2013-02-18 04:30:00,10.1,-0.7,30.07,WNW,292,18.0,41.0,61,0.00,FEW,,0.00,WeatherDisplay:10.37,2013-02-18 09:30:00,
2013-02-18 04:40:00,10.0,-0.4,30.08,NW,307,28.0,36.0,62,0.00,FEW,,0.00,WeatherDisplay:10.37,2013-02-18 09:40:00,
2013-02-18 04:50:00,9.9,-0.5,30.09,WNW,294,15.0,32.0,62,0.00,FEW,,0.00,WeatherDisplay:10.37,2013-02-18 09:50:00,
2013-02-18 05:00:00,9.8,-0.6,30.10,WNW,296,20.0,25.0,62,0.00,FEW,,0.00,WeatherDisplay:10.37,2013-02-18 10:00:00,
2013-02-18 05:10:00,9.8,-0.6,30.10,NW,307,23.0,27.0,62,0.00,CLR,,0.00,WeatherDisplay:10.37,2013-02-18 10:10:00,
2013-02-18 05:20:00,9.6,-0.8,30.10,WNW,296,12.0,24.0,62,0.00,CLR,,0.00,WeatherDisplay:10.37,2013-02-18 10:20:00,
2013-02-18 05:30:00,9.5,-0.9,30.11,WNW,302,18.0,23.0,62,0.00,CLR,,0.00,WeatherDisplay:10.37,2013-02-18 10:30:00,
2013-02-18 05:40:00,9.5,-0.6,30.12,WNW,294,20.0,25.0,63,0.00,CLR,,0.00,WeatherDisplay:10.37,2013-02-18 10:40:00,
2013-02-18 05:50:00,9.5,-0.6,30.12,WNW,300,17.0,36.0,63,0.00,CLR,,0.00,WeatherDisplay:10.37,2013-02-18 10:50:00,
2013-02-18 06:00:00,9.4,-0.7,30.14,WNW,292,7.0,20.0,63,0.00,CLR,,0.00,WeatherDisplay:10.37,2013-02-18 11:00:00,
2013-02-18 06:10:00,9.4,-0.7,30.15,WNW,290,10.0,20.0,63,0.00,CLR,,0.00,WeatherDisplay:10.37,2013-02-18 11:10:00,
2013-02-18 06:20:00,9.4,-0.4,30.15,NW,308,12.0,25.0,64,0.00,CLR,,0.00,WeatherDisplay:10.37,2013-02-18 11:20:00,
2013-02-18 06:30:00,9.4,-0.7,30.16,West,279,15.0,29.0,63,0.00,CLR,,0.00,WeatherDisplay:10.37,2013-02-18 11:30:00,
2013-02-18 06:49:00,9.1,-1.0,30.17,WNW,297,17.0,27.0,63,0.00,CLR,,0.00,WeatherDisplay:10.37,2013-02-18 11:49:00,
2013-02-18 07:00:00,9.0,-0.7,30.18,NW,320,13.0,25.0,64,0.00,CLR,,0.00,WeatherDisplay:10.37,2013-02-18 12:00:00,
2013-02-18 07:10:00,9.1,-0.6,30.18,WNW,303,9.0,25.0,64,0.00,FEW,,0.00,WeatherDisplay:10.37,2013-02-18 12:10:00,
2013-02-18 07:20:00,9.4,-0.7,30.19,NW,308,17.0,23.0,63,0.00,FEW,,0.00,WeatherDisplay:10.37,2013-02-18 12:20:00,
2013-02-18 07:29:00,9.8,-0.6,30.19,NW,306,20.0,25.0,62,0.00,FEW,,0.00,WeatherDisplay:10.37,2013-02-18 12:29:00,
2013-02-18 07:40:00,10.2,-0.2,30.19,NW,306,15.0,24.0,62,0.00,FEW,,0.00,WeatherDisplay:10.37,2013-02-18 12:40:00,
2013-02-18 07:50:00,10.6,-0.2,30.19,NW,309,20.0,24.0,61,0.00,FEW,,0.00,WeatherDisplay:10.37,2013-02-18 12:50:00,
2013-02-18 08:00:00,11.1,-0.1,30.19,NW,311,15.0,30.0,60,0.00,FEW,,0.00,WeatherDisplay:10.37,2013-02-18 13:00:00,
2013-02-18 08:10:00,11.6,0.0,30.20,WNW,297,18.0,29.0,59,0.00,FEW,,0.00,WeatherDisplay:10.37,2013-02-18 13:10:00,
2013-02-18 08:20:00,12.2,-0.1,30.21,NW,316,17.0,27.0,57,0.00,FEW,,0.00,WeatherDisplay:10.37,2013-02-18 13:20:00,
2013-02-18 08:30:00,12.8,0.0,30.21,NW,309,16.0,23.0,56,0.00,FEW,,0.00,WeatherDisplay:10.37,2013-02-18 13:30:00,
2013-02-18 08:39:00,13.1,0.3,30.21,WNW,290,10.0,23.0,56,0.00,FEW,,0.00,WeatherDisplay:10.37,2013-02-18 13:39:00,
2013-02-18 08:49:00,14.0,0.8,30.21,NW,305,14.0,25.0,55,0.00,FEW,,0.00,WeatherDisplay:10.37,2013-02-18 13:49:00,
2013-02-18 08:59:00,14.3,0.3,30.21,WNW,291,22.0,32.0,53,0.00,FEW,,0.00,WeatherDisplay:10.37,2013-02-18 13:59:00,
2013-02-18 09:09:00,14.8,0.3,30.20,WNW,297,22.0,35.0,52,0.00,FEW,,0.00,WeatherDisplay:10.37,2013-02-18 14:09:00,
2013-02-18 09:19:00,15.4,0.4,30.21,WNW,282,14.0,32.0,51,0.00,FEW,,0.00,WeatherDisplay:10.37,2013-02-18 14:19:00,
2013-02-18 09:29:00,15.8,0.4,30.21,WNW,294,14.0,25.0,50,0.00,FEW,,0.00,WeatherDisplay:10.37,2013-02-18 14:29:00,
2013-02-18 09:40:00,16.1,0.3,30.22,WNW,299,23.0,36.0,49,0.00,FEW,,0.00,WeatherDisplay:10.37,2013-02-18 14:40:00,
2013-02-18 09:49:00,16.2,0.4,30.21,WNW,299,25.0,41.0,49,0.00,FEW,,0.00,WeatherDisplay:10.37,2013-02-18 14:49:00,
2013-02-18 09:59:00,17.0,1.1,30.21,WNW,301,17.0,29.0,49,0.00,CLR,,0.00,WeatherDisplay:10.37,2013-02-18 14:59:00,
2013-02-18 10:10:00,18.2,2.2,30.22,WNW,295,9.0,23.0,49,0.00,CLR,,0.00,WeatherDisplay:10.37,2013-02-18 15:10:00,
2013-02-18 10:19:00,18.3,1.4,30.22,NW,304,17.0,32.0,47,0.00,CLR,,0.00,WeatherDisplay:10.37,2013-02-18 15:19:00,
2013-02-18 10:30:00,18.4,1.9,30.22,WNW,299,16.0,25.0,48,0.00,CLR,,0.00,WeatherDisplay:10.37,2013-02-18 15:30:00,
2013-02-18 10:39:00,18.5,1.6,30.22,WNW,283,9.0,30.0,47,0.00,CLR,,0.00,WeatherDisplay:10.37,2013-02-18 15:39:00,
2013-02-18 10:49:00,18.6,0.7,30.23,WNW,287,29.0,39.0,45,0.00,CLR,,0.00,WeatherDisplay:10.37,2013-02-18 15:49:00,
2013-02-18 10:59:00,19.5,1.1,30.23,NW,305,24.0,36.0,44,0.00,CLR,,0.00,WeatherDisplay:10.37,2013-02-18 15:59:00,
2013-02-18 11:09:00,20.2,1.3,30.22,WNW,302,13.0,27.0,43,0.00,CLR,,0.00,WeatherDisplay:10.37,2013-02-18 16:09:00,
2013-02-18 11:19:00,20.7,0.1,30.22,WNW,300,21.0,33.0,40,0.00,CLR,,0.00,WeatherDisplay:10.37,2013-02-18 16:19:00,
2013-02-18 11:29:00,21.7,1.0,30.22,NW,313,15.0,21.0,40,0.00,CLR,,0.00,WeatherDisplay:10.37,2013-02-18 16:29:00,
2013-02-18 11:39:00,21.5,0.9,30.22,West,275,18.0,25.0,40,0.00,CLR,,0.00,WeatherDisplay:10.37,2013-02-18 16:39:00,
2013-02-18 11:49:00,22.0,2.4,30.22,WNW,283,15.0,21.0,42,0.00,CLR,,0.00,WeatherDisplay:10.37,2013-02-18 16:49:00,
2013-02-18 11:59:00,22.2,3.1,30.22,West,279,20.0,30.0,43,0.00,CLR,,0.00,WeatherDisplay:10.37,2013-02-18 16:59:00,
2013-02-18 12:09:00,22.9,3.7,30.21,WNW,291,13.0,29.0,43,0.00,CLR,,0.00,WeatherDisplay:10.37,2013-02-18 17:09:00,
2013-02-18 12:19:00,22.4,2.2,30.21,West,281,15.0,30.0,41,0.00,CLR,,0.00,WeatherDisplay:10.37,2013-02-18 17:19:00,
2013-02-18 12:29:00,23.5,3.2,30.20,NW,306,10.0,23.0,41,0.00,CLR,,0.00,WeatherDisplay:10.37,2013-02-18 17:29:00,
2013-02-18 12:40:00,23.3,2.5,30.19,WNW,293,15.0,24.0,40,0.00,CLR,,0.00,WeatherDisplay:10.37,2013-02-18 17:40:00,
2013-02-18 12:49:00,23.3,1.9,30.19,West,277,9.0,29.0,39,0.00,CLR,,0.00,WeatherDisplay:10.37,2013-02-18 17:49:00,
2013-02-18 12:59:00,23.8,3.0,30.19,WNW,297,18.0,27.0,40,0.00,CLR,,0.00,WeatherDisplay:10.37,2013-02-18 17:59:00,
2013-02-18 13:10:00,24.3,2.3,30.19,West,274,17.0,29.0,38,0.00,CLR,,0.00,WeatherDisplay:10.37,2013-02-18 18:10:00,
2013-02-18 13:20:00,24.9,3.4,30.19,West,280,13.0,25.0,39,0.00,CLR,,0.00,WeatherDisplay:10.37,2013-02-18 18:20:00,
2013-02-18 13:29:00,25.9,4.3,30.18,West,280,7.0,25.0,39,0.00,CLR,,0.00,WeatherDisplay:10.37,2013-02-18 18:29:00,
2013-02-18 13:40:00,25.4,2.7,30.18,WNW,288,16.0,25.0,37,0.00,CLR,,0.00,WeatherDisplay:10.37,2013-02-18 18:40:00,
2013-02-18 13:49:00,26.0,4.9,30.18,WNW,288,7.0,21.0,40,0.00,CLR,,0.00,WeatherDisplay:10.37,2013-02-18 18:49:00,
2013-02-18 14:00:00,26.1,2.7,30.18,WNW,298,14.0,27.0,36,0.00,CLR,,0.00,WeatherDisplay:10.37,2013-02-18 19:00:00,
2013-02-18 14:09:00,27.0,4.1,30.18,West,266,7.0,20.0,37,0.00,CLR,,0.00,WeatherDisplay:10.37,2013-02-18 19:09:00,
2013-02-18 14:19:00,27.1,4.3,30.17,WNW,293,9.0,23.0,37,0.00,CLR,,0.00,WeatherDisplay:10.37,2013-02-18 19:19:00,
2013-02-18 14:29:00,27.4,4.5,30.18,West,277,8.0,23.0,37,0.00,CLR,,0.00,WeatherDisplay:10.37,2013-02-18 19:29:00,
2013-02-18 14:39:00,27.4,3.9,30.18,WNW,290,15.0,24.0,36,0.00,CLR,,0.00,WeatherDisplay:10.37,2013-02-18 19:39:00,
2013-02-18 14:49:00,27.6,3.5,30.18,WNW,283,20.0,27.0,35,0.00,CLR,,0.00,WeatherDisplay:10.37,2013-02-18 19:49:00,
2013-02-18 14:59:00,28.5,5.5,30.18,WNW,299,10.0,18.0,37,0.00,CLR,,0.00,WeatherDisplay:10.37,2013-02-18 19:59:00,
2013-02-18 15:09:00,28.3,3.5,30.18,WNW,284,20.0,27.0,34,0.00,CLR,,0.00,WeatherDisplay:10.37,2013-02-18 20:09:00,
2013-02-18 15:19:00,28.7,5.1,30.18,WNW,293,14.0,23.0,36,0.00,CLR,,0.00,WeatherDisplay:10.37,2013-02-18 20:19:00,
2013-02-18 15:29:00,28.8,5.1,30.18,WNW,298,15.0,23.0,36,0.00,CLR,,0.00,WeatherDisplay:10.37,2013-02-18 20:29:00,
2013-02-18 15:40:00,28.8,5.2,30.18,West,279,14.0,20.0,36,0.00,CLR,,0.00,WeatherDisplay:10.37,2013-02-18 20:40:00,
2013-02-18 15:50:00,28.8,5.1,30.18,West,281,15.0,24.0,36,0.00,CLR,,0.00,WeatherDisplay:10.37,2013-02-18 20:50:00,
2013-02-18 15:59:00,28.7,5.7,30.18,West,277,12.0,21.0,37,0.00,CLR,,0.00,WeatherDisplay:10.37,2013-02-18 20:59:00,
2013-02-18 16:09:00,28.6,6.2,30.18,WNW,291,12.0,20.0,38,0.00,FEW,,0.00,WeatherDisplay:10.37,2013-02-18 21:09:00,
2013-02-18 16:20:00,28.2,6.4,30.18,West,262,8.0,20.0,39,0.00,FEW,,0.00,WeatherDisplay:10.37,2013-02-18 21:20:00,
2013-02-18 16:29:00,27.4,6.8,30.18,West,265,13.0,21.0,41,0.00,FEW,,0.00,WeatherDisplay:10.37,2013-02-18 21:29:00,
2013-02-18 16:39:00,26.8,6.2,30.18,West,279,9.0,21.0,41,0.00,FEW,,0.00,WeatherDisplay:10.37,2013-02-18 21:39:00,
2013-02-18 16:49:00,26.6,6.6,30.19,West,278,12.0,21.0,42,0.00,FEW,,0.00,WeatherDisplay:10.37,2013-02-18 21:49:00,
2013-02-18 17:00:00,26.2,6.7,30.19,WNW,285,13.0,23.0,43,0.00,FEW,,0.00,WeatherDisplay:10.37,2013-02-18 22:00:00,
2013-02-18 17:09:00,26.0,6.5,30.18,WNW,282,12.0,18.0,43,0.00,FEW,,0.00,WeatherDisplay:10.37,2013-02-18 22:09:00,
2013-02-18 17:20:00,25.9,6.9,30.18,West,281,14.0,18.0,44,0.00,FEW,,0.00,WeatherDisplay:10.37,2013-02-18 22:20:00,
2013-02-18 17:29:00,25.7,7.3,30.18,WNW,287,5.0,15.0,45,0.00,FEW,,0.00,WeatherDisplay:10.37,2013-02-18 22:29:00,
2013-02-18 17:40:00,25.5,7.6,30.18,WNW,298,9.0,15.0,46,0.00,FEW,,0.00,WeatherDisplay:10.37,2013-02-18 22:40:00,
2013-02-18 17:49:00,25.2,7.8,30.18,WNW,292,3.0,15.0,47,0.00,FEW,,0.00,WeatherDisplay:10.37,2013-02-18 22:49:00,
2013-02-18 17:59:00,24.9,7.5,30.18,West,280,10.0,12.0,47,0.00,FEW,,0.00,WeatherDisplay:10.37,2013-02-18 22:59:00,
2013-02-18 18:09:00,24.9,8.0,30.18,WNW,294,14.0,18.0,48,0.00,FEW,,0.00,WeatherDisplay:10.37,2013-02-18 23:09:00,
2013-02-18 18:19:00,24.8,7.9,30.19,WNW,300,8.0,14.0,48,0.00,FEW,,0.00,WeatherDisplay:10.37,2013-02-18 23:19:00,
2013-02-18 18:29:00,24.7,7.8,30.19,WNW,290,12.0,17.0,48,0.00,FEW,,0.00,WeatherDisplay:10.37,2013-02-18 23:29:00,
2013-02-18 18:39:00,24.5,7.6,30.19,WNW,289,7.0,14.0,48,0.00,FEW,,0.00,WeatherDisplay:10.37,2013-02-18 23:39:00,
2013-02-18 18:49:00,24.4,8.0,30.19,WNW,291,8.0,12.0,49,0.00,FEW,,0.00,WeatherDisplay:10.37,2013-02-18 23:49:00,
2013-02-18 18:59:00,24.3,8.3,30.19,WNW,295,5.0,11.0,50,0.00,FEW,,0.00,WeatherDisplay:10.37,2013-02-18 23:59:00,
2013-02-18 19:09:00,24.2,8.2,30.19,NW,304,10.0,14.0,50,0.00,FEW,,0.00,WeatherDisplay:10.37,2013-02-19 00:09:00,
2013-02-18 19:19:00,24.2,8.2,30.19,WNW,297,6.0,17.0,50,0.00,FEW,,0.00,WeatherDisplay:10.37,2013-02-19 00:19:00,
2013-02-18 19:29:00,24.0,8.5,30.19,WNW,288,7.0,14.0,51,0.00,FEW,,0.00,WeatherDisplay:10.37,2013-02-19 00:29:00,
2013-02-18 19:39:00,23.8,8.7,30.19,WNW,299,5.0,9.0,52,0.00,FEW,,0.00,WeatherDisplay:10.37,2013-02-19 00:39:00,
2013-02-18 19:50:00,23.4,8.8,30.19,WNW,289,1.0,9.0,53,0.00,FEW,,0.00,WeatherDisplay:10.37,2013-02-19 00:50:00,
2013-02-18 19:59:00,23.4,8.7,30.18,WNW,282,2.0,9.0,53,0.00,FEW,,0.00,WeatherDisplay:10.37,2013-02-19 00:59:00,
2013-02-18 20:09:00,23.3,8.7,30.18,NW,305,3.0,6.0,53,0.00,FEW,,0.00,WeatherDisplay:10.37,2013-02-19 01:09:00,
2013-02-18 20:20:00,22.9,8.7,30.18,NW,323,5.0,8.0,54,0.00,FEW,,0.00,WeatherDisplay:10.37,2013-02-19 01:20:00,
2013-02-18 20:29:00,22.5,8.7,30.17,NW,310,0.0,6.0,55,0.00,FEW,,0.00,WeatherDisplay:10.37,2013-02-19 01:29:00,
2013-02-18 20:39:00,21.3,9.2,30.18,WNW,299,2.0,5.0,59,0.00,FEW,,0.00,WeatherDisplay:10.37,2013-02-19 01:39:00,
2013-02-18 20:49:00,21.4,9.3,30.18,WNW,289,5.0,8.0,59,0.00,FEW,,0.00,WeatherDisplay:10.37,2013-02-19 01:49:00,
2013-02-18 21:00:00,21.5,9.4,30.18,NW,321,1.0,8.0,59,0.00,FEW,,0.00,WeatherDisplay:10.37,2013-02-19 02:00:00,
2013-02-18 21:10:00,21.1,9.4,30.19,NW,321,0.0,3.0,60,0.00,FEW,,0.00,WeatherDisplay:10.37,2013-02-19 02:10:00,
2013-02-18 21:19:00,20.4,9.4,30.18,NW,321,0.0,5.0,62,0.00,FEW,,0.00,WeatherDisplay:10.37,2013-02-19 02:19:00,
2013-02-18 21:30:00,19.9,10.0,30.18,NW,321,0.0,2.0,65,0.00,FEW,,0.00,WeatherDisplay:10.37,2013-02-19 02:30:00,
2013-02-18 21:39:00,20.0,9.8,30.17,NW,321,0.0,0.0,64,0.00,FEW,,0.00,WeatherDisplay:10.37,2013-02-19 02:39:00,
2013-02-18 21:49:00,19.7,10.8,30.17,NW,321,0.0,0.0,68,0.00,FEW,,0.00,WeatherDisplay:10.37,2013-02-19 02:49:00,
2013-02-18 22:10:00,19.1,10.6,30.16,NW,321,0.0,0.0,69,0.00,SCT,,0.00,WeatherDisplay:10.37,2013-02-19 03:10:00,
2013-02-18 22:19:00,19.4,10.6,30.16,NW,321,0.0,0.0,68,0.00,SCT,,0.00,WeatherDisplay:10.37,2013-02-19 03:19:00,
2013-02-18 22:30:00,19.7,10.5,30.16,NW,321,0.0,2.0,67,0.00,SCT,,0.00,WeatherDisplay:10.37,2013-02-19 03:30:00,
2013-02-18 22:39:00,19.5,10.3,30.15,NW,321,0.0,0.0,67,0.00,SCT,,0.00,WeatherDisplay:10.37,2013-02-19 03:39:00,
2013-02-18 22:49:00,18.9,10.4,30.15,NW,321,0.0,0.0,69,0.00,SCT,,0.00,WeatherDisplay:10.37,2013-02-19 03:49:00,
2013-02-18 22:59:00,19.0,10.5,30.15,NW,321,0.0,0.0,69,0.00,SCT,,0.00,WeatherDisplay:10.37,2013-02-19 03:59:00,
2013-02-18 23:09:00,19.0,10.5,30.16,NW,321,2.0,3.0,69,0.00,SCT,,0.00,WeatherDisplay:10.37,2013-02-19 04:09:00,
2013-02-18 23:20:00,19.4,10.6,30.16,WSW,256,0.0,3.0,68,0.00,SCT,,0.00,WeatherDisplay:10.37,2013-02-19 04:20:00,
2013-02-18 23:29:00,20.4,10.5,30.17,SW,236,1.0,3.0,65,0.00,SCT,,0.00,WeatherDisplay:10.37,2013-02-19 04:29:00,
2013-02-18 23:39:00,20.6,11.0,30.17,SW,236,0.0,2.0,66,0.00,SCT,,0.00,WeatherDisplay:10.37,2013-02-19 04:39:00,
2013-02-18 23:49:00,20.3,10.8,30.16,SW,236,0.0,0.0,66,0.00,SCT,,0.00,WeatherDisplay:10.37,2013-02-19 04:49:00,
2013-02-18 23:59:00,19.8,11.6,30.17,SW,236,0.0,0.0,70,0.00,SCT,,0.00,WeatherDisplay:10.37,2013-02-19 04:59:00,